CW9861 Weather Reports


time (UTC)temp
C
wind
direction
speed
KPH
gust
KPH
rain 1hr
cm
rain 24hr
cm
rain mn
cm
humidity
%
barometer
mb
20260903063957 21 266 0.0 0.0 0.00 0.00 0.00 90 1012.4
20260903063458 21 266 0.0 0.0 0.00 0.00 0.00 90 1012.4
20260903062957 21 266 0.0 0.0 0.00 0.00 0.00 89 1012.4
20260903062457 21 266 0.0 0.0 0.00 0.00 0.00 89 1012.4
20260903061958 21 266 0.0 0.0 0.00 0.00 0.00 89 1012.4
20260903061457 21 266 0.0 0.0 0.00 0.00 0.00 89 1012.4
20260903060958 21 266 0.0 0.0 0.00 0.00 0.00 89 1012.4
20260903060457 21 266 0.0 0.0 0.00 0.00 0.00 89 1012.4
20260903055958 21 266 0.0 0.0 0.00 0.00 0.00 89 1012.4
20260903055458 21 266 0.0 0.0 0.00 0.00 0.00 89 1012.4
20260903054958 21 266 0.0 0.0 0.00 0.00 0.00 89 1012.4
20260903054458 21 266 0.0 0.0 0.00 0.00 0.00 89 1012.4
20260903053958 21 266 0.0 0.0 0.00 0.00 0.00 89 1012.4
20260903050457 21 266 0.0 0.0 0.00 0.00 0.00 88 1012.3
20260903045958 21 266 0.0 0.0 0.00 0.00 0.00 88 1012.3
20260903045457 21 266 0.0 0.0 0.00 0.00 0.00 88 1012.2
20260903044957 21 266 0.0 0.0 0.00 0.00 0.00 88 1012.1
20260903044457 21 266 0.0 0.0 0.00 0.00 0.00 88 1012.1
20260903043957 22 266 0.0 0.0 0.00 0.00 0.00 88 1012.0
20260903043457 22 266 0.0 0.0 0.00 0.00 0.00 88 1012.0
20260903042959 22 266 0.0 0.0 0.00 0.00 0.00 88 1012.0
20260903042458 22 266 0.0 0.0 0.00 0.00 0.00 88 1011.9
20260903041957 22 266 0.0 0.0 0.00 0.00 0.00 88 1011.9
20260903041458 22 266 0.0 1.6 0.00 0.00 0.00 88 1011.9
20260903040958 22 266 0.0 1.6 0.00 0.00 0.00 88 1011.8
20260903040458 22 266 0.0 0.0 0.00 0.00 0.00 88 1011.9
20260903040003 22 266 0.0 0.0 0.00 0.00 0.00 88 1011.8
20260903035500 22 266 0.0 0.0 0.00 0.00 0.00 88 1011.7
20260903034959 22 266 0.0 0.0 0.00 0.00 0.00 88 1011.7
20260903034459 22 266 0.0 0.0 0.00 0.00 0.00 88 1011.8
20260903033959 22 266 0.0 0.0 0.00 0.00 0.00 88 1011.7
20260903033459 23 266 0.0 0.0 0.00 0.00 0.00 88 1011.7
20260903032959 23 266 0.0 0.0 0.00 0.00 0.00 88 1011.8
20260903032500 23 266 0.0 0.0 0.00 0.00 0.00 88 1011.7
20260903031959 23 266 0.0 0.0 0.00 0.00 0.00 88 1011.7
20260903031459 23 266 0.0 0.0 0.00 0.00 0.00 88 1011.8
20260903030959 23 266 0.0 0.0 0.00 0.00 0.00 88 1011.8
20260903030459 23 266 0.0 0.0 0.00 0.00 0.00 88 1011.9
20260903022958 24 266 0.0 0.0 0.00 0.00 0.00 86 1012.1
20260903022458 24 266 0.0 0.0 0.00 0.00 0.00 86 1012.1
20260903021958 24 266 0.0 0.0 0.00 0.00 0.00 86 1012.1
20260903021459 24 266 0.0 0.0 0.00 0.00 0.00 86 1012.1
20260903020958 24 266 0.0 0.0 0.00 0.00 0.00 86 1012.1
20260903020458 24 266 0.0 0.0 0.00 0.00 0.00 86 1012.1
20260903020000 24 266 0.0 0.0 0.00 0.00 0.00 86 1012.1
20260903015459 25 266 0.0 0.0 0.00 0.00 0.00 86 1012.1
20260903015000 25 266 0.0 0.0 0.00 0.00 0.00 86 1012.0
20260903014459 25 266 0.0 0.0 0.00 0.00 0.00 86 1012.0
20260903014000 25 266 0.0 1.6 0.00 0.00 0.00 86 1011.9
20260903013500 25 266 0.0 1.6 0.00 0.00 0.00 86 1011.9
20260903012959 25 266 0.0 1.6 0.00 0.00 0.00 86 1011.9
20260903012500 25 266 0.0 1.6 0.00 0.00 0.00 86 1011.9
20260903011959 25 259 0.0 3.2 0.00 0.00 0.00 85 1011.8
20260903011459 25 207 0.0 3.2 0.00 0.00 0.00 85 1011.8
20260903010959 25 212 0.0 1.6 0.00 0.00 0.00 85 1011.6
20260903010500 25 212 0.0 1.6 0.00 0.00 0.00 85 1011.8
20260903010000 25 212 0.0 1.6 0.00 0.00 0.00 84 1011.8
20260903005459 26 288 0.0 0.0 0.00 0.00 0.00 84 1011.6
20260903004958 26 288 0.0 0.0 0.00 0.00 0.00 84 1011.4
20260903004458 26 288 0.0 0.0 0.00 0.00 0.00 83 1011.5
20260903003958 26 288 0.0 1.6 0.00 0.00 0.00 83 1011.3
20260903003458 26 288 0.0 1.6 0.00 0.00 0.00 83 1011.3
20260903002958 26 288 0.0 1.6 0.00 0.00 0.00 83 1011.2
20260903002459 26 288 0.0 1.6 0.00 0.00 0.00 82 1011.2
20260902234459 27 266 0.0 3.2 0.00 0.00 0.00 81 1011.4
20260902233958 27 290 0.0 3.2 0.00 0.00 0.00 81 1011.2
20260902233459 27 336 0.0 3.2 0.00 0.00 0.00 80 1011.1
20260902232958 27 330 0.0 3.2 0.00 0.00 0.00 80 1011.1
20260902232459 27 324 1.6 3.2 0.00 0.00 0.00 81 1011.0
20260902231958 27 307 0.0 3.2 0.00 0.00 0.00 81 1011.0
20260902231458 27 276 0.0 1.6 0.00 0.00 0.00 80 1010.9
20260902230958 27 311 0.0 4.8 0.00 0.00 0.00 81 1010.9
20260902230458 27 258 1.6 4.8 0.00 0.00 0.00 80 1011.0
20260902225958 27 266 0.0 1.6 0.00 0.00 0.00 81 1011.0
20260902225458 27 255 0.0 1.6 0.00 0.00 0.00 81 1011.1
20260902224958 27 323 0.0 4.8 0.00 0.00 0.00 81 1011.0
20260902224459 27 4 0.0 4.8 0.00 0.00 0.00 80 1011.1
20260902223958 27 236 1.6 4.8 0.00 0.00 0.00 80 1011.2
20260902223458 27 243 0.0 1.6 0.00 0.00 0.00 80 1011.4
20260902222958 27 302 0.0 3.2 0.00 0.00 0.00 80 1011.4
20260902222458 27 234 0.0 4.8 0.00 0.00 0.00 79 1011.3
20260902221959 27 306 0.0 4.8 0.00 0.00 0.00 79 1011.2
20260902221457 27 283 0.0 9.7 0.00 0.00 0.00 79 1011.4
20260902220958 27 253 1.6 9.7 0.00 0.00 0.00 78 1011.6
20260902220458 27 341 1.6 8.0 0.00 0.00 0.00 78 1011.8
20260902215959 28 281 1.6 6.4 0.00 0.00 0.00 77 1011.6
20260902215458 28 228 1.6 12.9 0.00 0.00 0.00 78 1011.7
20260902214958 28 280 0.0 6.4 0.00 0.00 0.00 78 1011.6
20260902214458 28 215 1.6 9.7 0.00 0.00 0.00 78 1011.3
20260902213958 28 326 1.6 6.4 0.00 0.00 0.00 78 1011.2
20260902213458 28 249 1.6 6.4 0.00 0.00 0.00 77 1011.3
20260902212958 28 260 1.6 6.4 0.00 0.00 0.00 78 1011.2
20260902212458 28 222 0.0 8.0 0.00 0.00 0.00 77 1011.1
20260902211958 28 239 1.6 8.0 0.00 0.00 0.00 76 1011.0
20260902211458 28 254 0.0 4.8 0.00 0.00 0.00 79 1011.1
20260902210958 28 197 1.6 9.7 0.00 0.00 0.00 79 1011.1
20260902210458 28 284 1.6 16.1 0.00 0.00 0.00 77 1011.6
20260902210000 28 199 4.8 17.7 0.00 0.00 0.00 74 1012.1
20260902205459 29 334 3.2 9.7 0.00 0.00 0.00 72 1012.0
20260902205000 29 340 4.8 9.7 0.00 0.00 0.00 71 1011.6
20260902204459 30 324 1.6 11.3 0.00 0.00 0.00 72 1011.4
20260902203959 30 297 3.2 11.3 0.00 0.00 0.00 70 1011.3
20260902203459 30 292 3.2 12.9 0.00 0.00 0.00 71 1011.2
20260902203000 30 337 3.2 12.9 0.00 0.00 0.00 71 1011.2
20260902202459 31 317 4.8 9.7 0.00 0.00 0.00 72 1011.4
20260902201959 31 284 1.6 11.3 0.00 0.00 0.00 74 1011.3
20260902201459 31 244 3.2 9.7 0.00 0.00 0.00 74 1011.4
20260902200959 31 204 1.6 9.7 0.00 0.00 0.00 72 1011.4
20260902200459 31 290 3.2 9.7 0.00 0.00 0.00 72 1011.4
20260902200000 31 343 3.2 8.0 0.00 0.00 0.00 73 1011.4
20260902195458 31 245 1.6 8.0 0.00 0.00 0.00 71 1011.4
20260902194958 31 255 1.6 8.0 0.00 0.00 0.00 71 1011.4
20260902194458 31 230 3.2 11.3 0.00 0.00 0.00 70 1011.2
20260902193957 32 196 3.2 8.0 0.00 0.00 0.00 72 1011.3
20260902193458 32 295 3.2 14.5 0.00 0.00 0.00 72 1011.4
20260902192958 32 230 3.2 14.5 0.00 0.00 0.00 70 1011.6
20260902192458 32 297 3.2 9.7 0.00 0.00 0.00 70 1011.6
20260902191958 31 320 1.6 11.3 0.00 0.00 0.00 74 1011.7
20260902191459 31 296 1.6 11.3 0.00 0.00 0.00 73 1011.7
20260902190958 31 235 1.6 8.0 0.00 0.00 0.00 73 1011.8
20260902190458 32 216 3.2 8.0 0.00 0.00 0.00 72 1012.0
20260902185959 31 309 1.6 6.4 0.00 0.00 0.00 73 1012.1
20260902185458 31 236 3.2 6.4 0.00 0.00 0.00 75 1012.2
20260902184958 31 339 3.2 6.4 0.00 0.00 0.00 74 1012.2
20260902184458 30 276 1.6 9.7 0.00 0.00 0.00 74 1012.1
20260902183958 31 284 3.2 9.7 0.00 0.00 0.00 73 1011.9
20260902183458 31 241 1.6 14.5 0.00 0.00 0.00 74 1011.8
20260902182958 31 11 4.8 14.5 0.00 0.00 0.00 75 1011.9
20260902182458 31 172 3.2 8.0 0.00 0.00 0.00 75 1011.8
20260902181958 31 191 4.8 14.5 0.00 0.00 0.00 73 1012.0
20260902181458 31 230 3.2 14.5 0.00 0.00 0.00 75 1012.1
20260902180959 31 195 3.2 8.0 0.00 0.00 0.00 73 1012.1
20260902180458 31 231 3.2 6.4 0.00 0.00 0.00 74 1012.2
20260902175958 30 163 3.2 16.1 0.00 0.00 0.00 77 1012.4
20260902175458 30 324 6.4 16.1 0.00 0.00 0.00 76 1012.4
20260902174958 31 215 6.4 11.3 0.00 0.00 0.00 75 1012.3
20260902174459 30 197 4.8 11.3 0.00 0.00 0.00 79 1012.5
20260902173959 30 208 4.8 12.9 0.00 0.00 0.00 77 1012.5
20260902173458 30 194 3.2 12.9 0.00 0.00 0.00 78 1012.5
20260902172958 30 203 3.2 11.3 0.00 0.00 0.00 80 1012.7
20260902172458 30 251 1.6 6.4 0.00 0.00 0.00 81 1012.8
20260902171958 29 174 0.0 9.7 0.00 0.00 0.00 83 1012.8
20260902171457 29 242 1.6 12.9 0.00 0.00 0.00 82 1012.8
20260902170958 29 113 3.2 12.9 0.00 0.00 0.00 81 1012.9
20260902170458 29 236 3.2 8.0 0.00 0.00 0.00 80 1012.9
20260902165958 30 236 3.2 8.0 0.00 0.00 0.00 82 1012.9
20260902165457 29 17 0.0 4.8 0.00 0.00 0.00 82 1013.0
20260902164958 28 155 1.6 4.8 0.00 0.00 0.00 82 1013.1
20260902164457 29 190 1.6 8.0 0.00 0.00 0.00 81 1013.1
20260902163958 29 234 3.2 6.4 0.00 0.00 0.00 80 1013.1
20260902163458 28 207 0.0 4.8 0.00 0.00 0.00 83 1013.0
20260902162958 28 214 1.6 3.2 0.00 0.00 0.00 81 1013.0
20260902162458 28 215 0.0 6.4 0.00 0.00 0.00 81 1013.0
20260902161957 28 240 1.6 8.0 0.00 0.00 0.00 80 1012.9
20260902161458 28 170 3.2 8.0 0.00 0.00 0.00 80 1013.0
20260902160958 28 165 3.2 4.8 0.00 0.00 0.00 79 1013.0
20260902160458 29 120 3.2 4.8 0.00 0.00 0.00 78 1013.0
20260902155959 28 212 1.6 6.4 0.00 0.00 0.00 78 1012.8
20260902155500 28 259 0.0 8.0 0.00 0.00 0.00 81 1013.0
20260902154959 28 238 3.2 8.0 0.00 0.00 0.00 81 1013.1
20260902154459 28 176 1.6 8.0 0.00 0.00 0.00 83 1013.1
20260902153959 28 228 3.2 8.0 0.00 0.00 0.00 82 1013.2
20260902153459 27 181 3.2 6.4 0.00 0.00 0.00 82 1013.2
20260902152959 27 189 1.6 4.8 0.00 0.00 0.00 81 1013.3
20260902152459 27 47 0.0 1.6 0.00 0.00 0.00 84 1013.2
20260902151959 27 53 0.0 3.2 0.00 0.00 0.00 83 1013.4
20260902151459 27 203 0.0 3.2 0.00 0.00 0.00 81 1013.4
20260902150958 27 195 0.0 3.2 0.00 0.00 0.00 82 1013.3
20260902150459 27 298 0.0 3.2 0.00 0.00 0.00 81 1013.3
20260902150000 27 276 0.0 3.2 0.00 0.00 0.00 81 1013.5
20260902145458 27 280 1.6 3.2 0.00 0.00 0.00 81 1013.5
20260902144959 27 261 0.0 4.8 0.00 0.00 0.00 81 1013.4
20260902144459 27 356 1.6 6.4 0.00 0.00 0.00 83 1013.5
20260902143959 27 207 0.0 6.4 0.00 0.00 0.00 82 1013.5
20260902143458 27 276 1.6 6.4 0.00 0.00 0.00 81 1013.4
20260902142959 27 334 0.0 1.6 0.00 0.00 0.00 85 1013.4
20260902142459 26 241 0.0 3.2 0.00 0.00 0.00 85 1013.3
20260902142000 26 342 1.6 3.2 0.00 0.00 0.00 86 1013.3
20260902141459 26 333 0.0 3.2 0.00 0.00 0.00 86 1013.4
20260902140959 25 318 1.6 4.8 0.00 0.00 0.00 88 1013.4
20260902140500 25 241 0.0 6.4 0.00 0.00 0.00 88 1013.7
20260902135958 25 259 3.2 6.4 0.00 0.00 0.00 88 1013.7
20260902135458 25 276 3.2 12.9 0.00 0.00 0.00 88 1013.7
20260902134958 25 241 1.6 12.9 0.00 0.00 0.00 88 1013.8
20260902134457 25 276 3.2 9.7 0.00 0.00 0.00 88 1013.7
20260902133958 25 317 1.6 14.5 0.00 0.00 0.00 88 1013.6
20260902133458 25 336 4.8 25.7 0.00 0.00 0.00 88 1013.4
20260902132958 26 349 6.4 11.3 0.00 0.00 0.00 89 1013.6
20260902125000 23 222 1.6 3.2 0.00 0.00 0.00 92 1013.0
20260902124459 23 198 0.0 6.4 0.00 0.00 0.00 92 1012.9
20260902123959 23 202 1.6 8.0 0.00 0.00 0.00 91 1012.9
20260902123459 22 238 1.6 6.4 0.00 0.00 0.00 91 1013.1
20260902123000 22 206 0.0 3.2 0.00 0.00 0.00 92 1013.1
20260902122459 22 228 0.0 3.2 0.00 0.00 0.00 91 1013.2
20260902114459 22 284 0.0 0.0 0.00 0.00 0.00 91 1013.4
20260902113959 22 284 0.0 0.0 0.00 0.00 0.00 91 1013.4
20260902113459 22 284 0.0 0.0 0.00 0.00 0.00 91 1013.4
20260902112959 22 284 0.0 0.0 0.00 0.00 0.00 91 1013.3
20260902112459 22 284 0.0 0.0 0.00 0.00 0.00 91 1013.4
20260902111959 22 284 0.0 0.0 0.00 0.00 0.00 91 1013.4
20260902104458 22 284 0.0 0.0 0.00 0.00 0.00 91 1013.3
20260902103958 22 284 0.0 0.0 0.00 0.00 0.00 91 1013.2
20260902103458 22 284 0.0 0.0 0.00 0.00 0.00 91 1013.2
20260902102957 22 284 0.0 0.0 0.00 0.00 0.00 91 1013.1
20260902102457 22 284 0.0 0.0 0.00 0.00 0.00 91 1013.2
20260902101957 22 284 0.0 0.0 0.00 0.00 0.00 91 1013.2
20260902101457 22 284 0.0 0.0 0.00 0.00 0.00 91 1013.2
20260902100958 22 284 0.0 0.0 0.00 0.00 0.00 91 1013.4
20260902100457 22 284 0.0 0.0 0.00 0.00 0.00 91 1013.4
20260902100000 22 284 0.0 0.0 0.00 0.00 0.00 90 1013.4
20260902095459 23 284 0.0 0.0 0.00 0.00 0.00 90 1013.4
20260902094958 23 284 0.0 0.0 0.00 0.00 0.00 91 1013.3
20260902094458 23 284 0.0 0.0 0.00 0.00 0.00 90 1013.3
20260902093958 23 284 0.0 0.0 0.00 0.00 0.00 90 1013.3
20260902093458 23 284 0.0 1.6 0.00 0.00 0.00 90 1013.3
20260902093000 23 284 0.0 1.6 0.00 0.00 0.00 90 1013.3
20260902092459 23 284 0.0 1.6 0.00 0.00 0.00 91 1013.3
20260902091959 23 284 0.0 0.0 0.00 0.00 0.00 91 1013.2
20260902091459 23 284 0.0 0.0 0.00 0.00 0.00 91 1013.2
20260902090958 23 284 0.0 0.0 0.00 0.00 0.00 91 1013.1
20260902090459 23 284 0.0 0.0 0.00 0.00 0.00 91 1013.1
20260902085958 23 284 0.0 0.0 0.00 0.00 0.00 91 1013.0
20260902085458 23 284 0.0 0.0 0.00 0.00 0.00 91 1013.1
20260902084957 23 284 0.0 1.6 0.00 0.00 0.00 91 1013.1
20260902084458 23 284 0.0 1.6 0.00 0.00 0.00 91 1013.0
20260902083957 23 294 0.0 4.8 0.00 0.00 0.00 91 1012.9
20260902083457 23 335 0.0 4.8 0.00 0.00 0.00 91 1012.7
20260902082957 23 328 1.6 3.2 0.00 0.00 0.00 91 1012.5
20260902082457 23 289 0.0 3.2 0.00 0.00 0.00 91 1012.4
20260902081958 23 257 1.6 3.2 0.00 0.00 0.00 91 1012.4
20260902081458 23 213 1.6 3.2 0.00 0.00 0.00 91 1012.3
20260902080957 23 318 1.6 3.2 0.00 0.00 0.00 91 1012.3
20260902080459 23 297 1.6 4.8 0.00 0.00 0.00 91 1012.4
20260902072458 22 229 0.0 1.6 0.00 0.00 0.00 90 1012.5
20260902071958 22 319 0.0 1.6 0.00 0.00 0.00 90 1012.6
20260902071457 22 318 0.0 1.6 0.00 0.00 0.00 90 1012.7
20260902070957 22 319 0.0 0.0 0.00 0.00 0.00 90 1012.6
20260902070457 22 318 0.0 0.0 0.00 0.00 0.00 90 1012.6
20260902065958 22 318 0.0 0.0 0.00 0.00 0.00 90 1012.5
20260902065457 22 318 0.0 0.0 0.00 0.00 0.00 90 1012.6
20260902064957 22 318 0.0 0.0 0.00 0.00 0.00 90 1012.7
20260902064458 22 318 0.0 0.0 0.00 0.00 0.00 89 1012.7